Location: Asheville, NC
(35.6000°N, 82.5500°W)
Time: 07:36:39
(UTC-04:00)

UWE-3 - Pass Details

Date: 08 January 2018
Orbit: 585 x 684 km, 97.6° (Epoch: 19 June)

Event Time Altitude Azimuth Distance (km) Brightness Sun altitude
Rises 19:29:05 0° 168° (SSE) 2,819 ? -22.9°
Reaches altitude 10° 19:31:13 10° 169° (S) 1,932 ? -23.3°
Maximum altitude 19:35:24 85° 257° (WSW) 618 ? -24.1°
Drops below altitude 10° 19:39:46 10° 347° (NNW) 2,000 ? -25.0°
Sets 19:42:00 0° 348° (NNW) 2,928 ? -25.4°
